Regional Weather Roundup
Issued by NWS

Home | Current Version | Previous Version | Graphics & Text | Print | Product List | Glossary On
Versions: 1 2 3 4 5 6 7 8 9 10 11 12 13 14 15 16 17 18 19 20 21 22 23 24 25 26 27 28 29 30 31 32 33 34 35 36 37 38 39 40 41 42 43 44 45 46 47 48 49 50
000
ASUS43 KMPX 241601
RWRMN
WEATHER ROUNDUP FOR MINNESOTA
NATIONAL WEATHER SERVICE TWIN CITIES/CHANHASSEN MN
1000 AM CST TUE JAN 24 2017


NOTE: "FAIR" INDICATES FEW OR NO CLOUDS BELOW 12,000 FEET WITH NO
SIGNIFICANT WEATHER AND/OR OBSTRUCTIONS TO VISIBILITY. N/A MEANS
CURRENT SKY AND/OR WEATHER CONDITIONS ARE NOT AVAILABLE.

MNZ060>063-068>070-241700-
   Twin Cities Metro

CITY           SKY/WX    TMP DP  RH WIND       PRES   REMARKS
TWIN CITIES    CLOUDY    32  25  75 NE7       29.88F WCI  26
ST PAUL        CLOUDY    31  27  85 N7        29.90F WCI  24
CRYSTAL        CLOUDY    32  23  69 N7        29.87F WCI  26
BLAINE         CLOUDY    34  28  80 N6        29.89F WCI  29
LAKEVILLE      CLOUDY    28  28 100 N8        29.87F WCI  20
EDEN PRAIRIE   CLOUDY    32  25  75 NE5       29.87F WCI  27
SOUTH ST PAUL  CLOUDY    32  28  86 CALM      29.88F
LAKE ELMO      CLOUDY    32  28  86 CALM      29.89F
$$
MNZ001>005-007-008-013>017-022>024-027-028-241700-
   Northwest Minnesota

CITY           SKY/WX    TMP DP  RH WIND       PRES   REMARKS
BEMIDJI        CLOUDY    27  24  87 W6        29.86S WCI  21
HALLOCK        CLOUDY    27  25  93 SW6       29.85S WCI  20
ROSEAU         CLOUDY    27  21  80 SW9       29.86R WCI  17
WARROAD        CLOUDY    25  21  86 SW5       29.86R WCI  19
THIEF RVR FALL CLOUDY    25  20  81 SW8       29.88R WCI  16
CROOKSTON      CLOUDY    27  23  86 SW8       29.90R WCI  18
FOSSTON        CLOUDY    23  19  86 W6        29.88S WCI  16
DETROIT LAKES  CLOUDY    28  27  93 NW6       29.88S WCI  22
PARK RAPIDS    CLOUDY    29  22  75 CALM      29.86S
MAHNOMEN       CLOUDY    25  21  87 W8        29.88R WCI  16
$$
MNZ006-009>011-018-025>026-241700-
   North Central Minnesota

CITY           SKY/WX    TMP DP  RH WIND       PRES   REMARKS
BAUDETTE       CLOUDY    23  20  88 SW5       29.87R WCI  17
FLAG ISLAND    CLOUDY    25  21  86 S8        29.84R WCI  16
INTL FALLS     CLOUDY    27  21  78 W7        29.87R WCI  19
WASKISH        CLOUDY    25  21  86 W10       29.87S WCI  15
BIG FORK       CLOUDY    28  23  80 CALM      29.87R
LONGVILLE      CLOUDY    27  23  86 CALM      29.88S
GRAND RAPIDS   CLOUDY    28  24  85 CALM      29.89S
CRANE LAKE     CLOUDY    27  25  93 W3        29.89R
ORR            CLOUDY    27  21  80 CALM      29.85R
COOK           CLOUDY    28  25  86 W5        29.87R WCI  23
WALKER         CLOUDY    27  23  85 S3        29.87R
$$
MNZ012-019>021-037-241700-
   Northeast Minnesota

CITY           SKY/WX    TMP DP  RH WIND       PRES   REMARKS
DULUTH         CLOUDY    30  25  81 NW9       29.85S WCI  22
ELY            CLOUDY    28  25  86 CALM      29.85S
HIBBING        CLOUDY    28  25  88 W3        29.86R
EVELETH        CLOUDY    30  25  81 NW3       29.87S
DULUTH HARBOR  CLOUDY    34  28  80 NW5       29.90S WCI  30
TWO HARBORS    CLOUDY    36  27  69 W5        29.85R
SILVER BAY     CLOUDY    34  28  80 N5        29.84S WCI  30
GRAND MARAIS     N/A     37  30  75 CALM      29.86R
G MARAIS ARPRT CLOUDY    30  25  80 CALM      29.82S
$$
MNZ029>031-032-039>041-046>048-054>057-064-241700-
   West Central Minnesota

CITY           SKY/WX    TMP DP  RH WIND       PRES   REMARKS
FERGUS FALLS   LGT SNOW  28  25  86 CALM      29.92S
WHEATON        CLOUDY    30  27  86 N5        29.90S WCI  25
MORRIS         CLOUDY    32  28  86 NE3       29.86F
ALEXANDRIA     CLOUDY    30  25  81 CALM      29.87S
ELBOW LAKE     CLOUDY    30  27  88 NE5       29.88S FOG     WCI  25
WADENA         CLOUDY    28  23  80 CALM      29.87S
GLENWOOD       CLOUDY    30  27  86 E5        29.87S WCI  25
APPLETON       CLOUDY    32  27  80 E5        29.86F WCI  27
ORTONVILLE     CLOUDY    30  27  86 CALM      29.86F
MADISON        CLOUDY    34  28  80 E7        29.86F WCI  28
WILLMAR        CLOUDY    30  27  86 CALM      29.88F
$$
MNZ033>034-036-042>043-049>051-058-059-241700-
   Central Minnesota

CITY           SKY/WX    TMP DP  RH WIND       PRES   REMARKS
ST CLOUD       CLOUDY    31  25  78 NE3       29.89S
SAUK CENTRE    CLOUDY    30  26  83 NE3       29.88S
PAYNESVILLE    CLOUDY    31  30  97 NE5       29.88F WCI  26
AITKIN         CLOUDY    34  25  69 CALM      29.87S
PINE RIVER     CLOUDY    28  23  80 NW3       29.92R
BRAINERD       CLOUDY    29  24  82 SW3       29.89R
STAPLES        CLOUDY    28  23  80 CALM      29.87S
LONG PRAIRIE   CLOUDY    30  27  86 CALM      29.88R
LITTLE FALLS   CLOUDY    32  25  74 CALM      29.89S
LITCHFIELD     CLOUDY    30  27  86 NE6       29.87F WCI  24
BUFFALO        CLOUDY    31  25  78 CALM      29.89F
MAPLE LAKE     CLOUDY    32  28  85 E5        29.89F WCI  27
HUTCHINSON     CLOUDY    31  28  86 NE6       29.88S WCI  26
$$
MNZ037-044-045-052-053-241700-
   East Central Minnesota

CITY           SKY/WX    TMP DP  RH WIND       PRES   REMARKS
PRINCETON      CLOUDY    32  27  80 CALM      29.89F
MORA           CLOUDY    32  27  80 CALM      29.91S
CAMBRIDGE      CLOUDY    34  25  69 CALM      29.88S
RUSH CITY      CLOUDY    32  25  74 CALM      29.90S
MOOSE LAKE     CLOUDY    32  27  80 NW5       29.87S WCI  27
HINCKLEY       CLOUDY    32  28  86 CALM      29.89F
CLOQUET        CLOUDY    30  25  80 W6        29.87S WCI  24
MCGREGOR       CLOUDY    32  27  80 CALM      29.89R
$$
MNZ071>073-080-081-089-090-097-098-241700-
   Southwest Minnesota

CITY           SKY/WX    TMP DP  RH WIND       PRES   REMARKS
MONTEVIDEO     CLOUDY    30  27  86 E7        29.88F WCI  23
GRANITE FALLS  CLOUDY    32  28  86 E7        29.87F WCI  26
CANBY          CLOUDY    32  29  88 NE10      29.85F WCI  23
MARSHALL       CLOUDY    30  27  88 E13       29.84F WCI  20
REDWOOD FALLS  CLOUDY    31  26  82 E6        29.86F WCI  25
OLIVIA         CLOUDY    32  28  86 NE5       29.86S WCI  27
PIPESTONE      CLOUDY    30  28  93 E15       29.77S FOG     WCI  19
WINDOM         CLOUDY    30  28  93 NE13      29.82F WCI  20
WORTHINGTON    CLOUDY    29  28  96 E16       29.80S WCI  17
JACKSON        CLOUDY    30  27  86 E12       29.83S WCI  21
TRACY          CLOUDY    31  29  94 E9        29.84S FOG     WCI  22
SLAYTON        CLOUDY    29  28  95 E12       29.81F FOG     WCI  19
$$
MNZ065>067-074>077-082>085-091>093-241700-
   South Central Minnesota

CITY           SKY/WX    TMP DP  RH WIND       PRES   REMARKS
MANKATO        CLOUDY    31  27  85 E8        29.88S WCI  23
NEW ULM        CLOUDY    30  27  86 E3        29.86F
ST JAMES       CLOUDY    30  28  93 E9        29.86F WCI  22
FAIRMONT       CLOUDY    31  28  89 E9        29.85S WCI  23
GLENCOE        CLOUDY    32  29  88 NE3       29.86F
OWATONNA       CLOUDY    30  27  86 CALM      29.87S FOG
WASECA         CLOUDY    32  28  86 E6        29.89S WCI  26
ALBERT LEA     CLOUDY    30  28  93 E6        29.86S WCI  24
$$
MNZ078>079-086>088-094>096-241700-
   Southeast Minnesota

CITY           SKY/WX    TMP DP  RH WIND       PRES   REMARKS
ROCHESTER      CLOUDY    30  28  92 NE3       29.86F FOG
RED WING       CLOUDY    34  27  75 NE6       29.88F WCI  29
STANTON        CLOUDY    32  28  86 N8        29.86S FOG     WCI  25
DODGE CENTER   CLOUDY    30  28  93 MISG      29.86S FOG
WINONA         CLOUDY    34  30  86 CALM      29.89F
AUSTIN         CLOUDY    30  27  86 NE6       29.86S WCI  24
PRESTON        CLOUDY    29  26  86 E5        29.87S WCI  24
$$
ABBREVIATIONS USED IN REMARKS
   TC - TEMPERATURES IN CELSIUS
  WCI - WIND CHILL INDEX
   HX - HEAT INDEX
  VSB - VISIBILITY
$$



USA.gov is the U.S. government's official web portal to all federal, state and local government web resources and services.